Location: Oshawa
(43.9000°N, 78.8670°W)
Time: 05:48:08
(UTC-04:00)

S-56A Canister/Altair - All Passes

Search period start: 02 July 2015 00:00
Search period end: 12 July 2015 00:00
Orbit: 636 x 2499 km, 38.9° (Epoch: 30 June)

Date Brightness Start Highest point End Pass type
(mag) Time Alt. Az. Time Alt. Az. Time Alt. Az.
02 Jul - 12:49:51 10° S 12:54:04 19° SE 12:59:40 10° E daylight
02 Jul - 14:50:01 10° SW 14:57:01 51° SSE 15:07:36 10° E daylight
02 Jul - 16:52:51 10° W 17:01:40 68° S 17:14:47 10° ESE daylight
02 Jul - 18:56:42 10° W 19:07:11 54° SSW 19:21:06 10° SE daylight
02 Jul - 21:02:07 10° W 21:12:34 29° SW 21:24:09 10° SSE daylight
03 Jul - 12:18:51 10° SSE 12:21:58 14° SE 12:25:58 10° ESE daylight
03 Jul - 14:18:11 10° SW 14:24:38 46° SSE 14:34:19 10° E daylight
03 Jul - 16:20:46 10° WSW 16:28:59 67° S 16:41:27 10° E daylight
03 Jul - 18:24:24 10° W 18:34:18 56° SSW 18:47:59 10° SE daylight
03 Jul - 20:29:23 10° W 20:39:41 32° SW 20:51:37 10° SSE daylight
04 Jul - 11:48:47 10° SE 11:49:54 11° SE 11:51:28 10° ESE daylight
04 Jul - 13:46:23 10° SW 13:52:20 41° SSE 14:01:06 10° E daylight
04 Jul - 15:48:43 10° WSW 15:56:23 66° S 16:08:08 10° E daylight
04 Jul - 17:52:09 10° W 18:01:30 58° SSW 18:14:47 10° ESE daylight
04 Jul - 19:56:47 10° W 20:06:49 34° SSW 20:18:57 10° SSE daylight
04 Jul - 22:07:34 10° WSW 22:11:45 11° SW 22:14:47 10° SW visible
05 Jul - 13:14:40 10° SW 13:20:07 35° SSE 13:27:55 10° E daylight
05 Jul - 15:16:43 10° WSW 15:23:51 64° S 15:34:50 10° E daylight
05 Jul - 17:19:58 10° W 17:28:45 59° SSW 17:41:34 10° ESE daylight
05 Jul - 19:24:17 10° W 19:33:58 36° SSW 19:46:11 10° SSE daylight
05 Jul - 21:33:08 10° WSW 21:38:58 13° SW 21:44:06 10° SSW visible
06 Jul - 12:43:01 10° SSW 12:47:56 30° SSE 12:54:47 10° E daylight
06 Jul - 14:44:46 10° WSW 14:51:24 61° S 15:01:36 10° E daylight
06 Jul - 16:47:51 10° W 16:56:04 60° S 17:08:19 10° ESE daylight
06 Jul - 18:51:53 10° W 19:01:10 38° SSW 19:13:19 10° SSE daylight
06 Jul - 20:59:30 10° WSW 21:06:11 15° SW 21:12:37 10° SSW daylight
07 Jul - 12:11:27 10° SSW 12:15:50 25° SE 12:21:41 10° E daylight
07 Jul - 14:12:51 10° WSW 14:19:02 57° SSE 14:28:25 10° E daylight
07 Jul - 16:15:47 10° W 16:23:27 61° S 16:35:05 10° ESE daylight
07 Jul - 18:19:34 10° W 18:28:25 40° SSW 18:40:23 10° SE daylight
07 Jul - 20:26:17 10° WSW 20:33:25 17° SW 20:40:46 10° S daylight
08 Jul - 11:39:58 10° S 11:43:45 21° SE 11:48:36 10° E daylight
08 Jul - 13:40:59 10° WSW 13:46:43 53° SSE 13:55:18 10° E daylight
08 Jul - 15:43:45 10° W 15:50:55 61° S 16:01:52 10° ESE daylight
08 Jul - 17:47:20 10° W 17:55:43 41° SSW 18:07:23 10° SE daylight
08 Jul - 19:53:20 10° WSW 20:00:40 19° SW 20:08:38 10° S daylight
09 Jul - 11:08:39 10° S 11:11:42 16° SE 11:15:27 10° ESE daylight
09 Jul - 13:09:09 10° SW 13:14:29 48° SSE 13:22:16 10° E daylight
09 Jul - 15:11:46 10° W 15:18:26 61° S 15:28:40 10° ESE daylight
09 Jul - 17:15:09 10° W 17:23:04 43° SSW 17:34:22 10° SE daylight
09 Jul - 19:20:36 10° W 19:27:56 20° SW 19:36:19 10° S daylight
10 Jul - 10:37:35 10° SSE 10:39:40 13° SE 10:42:09 10° ESE daylight
10 Jul - 12:37:19 10° SW 12:42:17 43° SSE 12:49:19 10° E daylight
10 Jul - 14:39:49 10° W 14:46:02 60° S 14:55:32 10° ESE daylight
10 Jul - 16:43:03 10° W 16:50:29 45° SSW 17:01:19 10° SE daylight
10 Jul - 18:48:01 10° W 18:55:15 22° SSW 19:03:52 10° S daylight
11 Jul - 12:05:32 10° SW 12:10:09 38° SSE 12:16:26 10° E daylight
11 Jul - 14:07:52 10° WSW 14:13:42 59° S 14:22:28 10° ESE daylight
11 Jul - 16:10:59 10° W 16:17:57 46° SSW 16:28:15 10° SE daylight
11 Jul - 18:15:33 10° W 18:22:36 23° SSW 18:31:18 10° SSE daylight
